User: anonymous   Login
Location: Deer Path Park
(40.5570°N, 74.8450°W)
Time: 11:54:40
(UTC-05:00)
Language:

Iridium 49 - Orbit

View from above orbital plane
View from above orbital plane
View from above satellite
View from above satellite

Ground track
Ground track

The orbit data is extracted from the following two-line orbital elements,

1 25108U 97082E   17056.29068934  .00000176  00000-0  55679-4 0  9992
2 25108  86.3958 302.1954 0002089  82.2244  56.0125 14.34220179  4334
Epoch (UTC): 25 February 2017 06:58:35
Eccentricity: 0.0002089
inclination: 86.3958°
perigee height: 776 km
apogee height: 779 km
right ascension of ascending node: 302.1954°
argument of perigee: 82.2244°
revolutions per day: 14.34220179
mean anomaly at epoch: 56.0125°
orbit number at epoch: 433

The dashed part of the orbit path shows where the satellite is in the earth's shadow,  

DLR